• In Belarus
  • List of Countries
  • For 7 days
  • Water Temperature
  • Satellite Maps
  • Weather Map
  • Weather Widgets
  • user-avatar
    Login

    Hourly Weather Oruro

    Today, 19 January, Friday

    Time Temperature Precipitation Wind Pressure Humidity
    00:00 +8°C° 0.1 mm 4 mps 476 mmHg 62%
    01:00 +8°C° 0.1 mm 4 mps 476 mmHg 64%
    02:00 +7°C° 0 mm 4 mps 476 mmHg 66%
    03:00 +8°C° 0.1 mm 3 mps 476 mmHg 68%
    04:00 +8°C° 0.1 mm 3 mps 476 mmHg 69%
    05:00 +7°C° 0.1 mm 3 mps 476 mmHg 71%
    06:00 +8°C° 0 mm 3 mps 476 mmHg 69%
    07:00 +8°C° 0 mm 3 mps 477 mmHg 66%
    08:00 +9°C° 0 mm 3 mps 477 mmHg 64%
    09:00 +10°C° 0 mm 3 mps 478 mmHg 58%
    10:00 +12°C° 0 mm 4 mps 479 mmHg 52%
    11:00 +13°C° 0 mm 4 mps 480 mmHg 46%
    12:00 +14°C° 0.1 mm 5 mps 480 mmHg 43%
    13:00 +15°C° 0.1 mm 5 mps 480 mmHg 41%
    14:00 +16°C° 0.1 mm 6 mps 480 mmHg 39%
    15:00 +16°C° 0.2 mm 6 mps 479 mmHg 40%
    16:00 +15°C° 0.2 mm 7 mps 479 mmHg 41%
    17:00 +15°C° 0.2 mm 7 mps 478 mmHg 43%
    18:00 +12°C° 0.1 mm 8 mps 477 mmHg 50%
    19:00 +11°C° 0.1 mm 8 mps 477 mmHg 56%
    20:00 +9°C° 0.1 mm 8 mps 476 mmHg 63%
    21:00 +9°C° 0.1 mm 7 mps 476 mmHg 66%
    22:00 +8°C° 0.1 mm 6 mps 476 mmHg 68%
    23:00 +7°C° 0.1 mm 5 mps 476 mmHg 71%

    Tomorrow, 20 January, Saturday

    Time Temperature Precipitation Wind Pressure Humidity
    00:00 +7°C° 0.2 mm 5 mps 476 mmHg 71%
    01:00 +7°C° 0.2 mm 4 mps 476 mmHg 71%
    02:00 +8°C° 0.2 mm 3 mps 475 mmHg 71%
    03:00 +8°C° 0.1 mm 3 mps 475 mmHg 72%
    04:00 +8°C° 0.1 mm 3 mps 475 mmHg 72%
    05:00 +8°C° 0.1 mm 3 mps 475 mmHg 72%
    06:00 +8°C° 0.1 mm 2 mps 476 mmHg 71%
    07:00 +8°C° 0.1 mm 2 mps 476 mmHg 70%
    08:00 +8°C° 0.1 mm 2 mps 476 mmHg 69%
    09:00 +9°C° 0.1 mm 3 mps 477 mmHg 63%
    10:00 +11°C° 0.1 mm 3 mps 478 mmHg 57%
    11:00 +12°C° 0.1 mm 4 mps 479 mmHg 50%
    12:00 +13°C° 0.3 mm 4 mps 479 mmHg 47%
    13:00 +14°C° 0.3 mm 4 mps 479 mmHg 44%
    14:00 +15°C° 0.3 mm 5 mps 479 mmHg 40%
    15:00 +15°C° 0.4 mm 5 mps 478 mmHg 42%
    16:00 +14°C° 0.4 mm 4 mps 478 mmHg 43%
    17:00 +14°C° 0.4 mm 4 mps 477 mmHg 45%
    18:00 +13°C° 0.4 mm 4 mps 477 mmHg 49%
    19:00 +12°C° 0.4 mm 4 mps 476 mmHg 54%
    20:00 +11°C° 0.4 mm 4 mps 476 mmHg 59%
    21:00 +10°C° 0.1 mm 4 mps 476 mmHg 61%
    22:00 +10°C° 0.1 mm 4 mps 476 mmHg 64%
    23:00 +9°C° 0.1 mm 3 mps 476 mmHg 66%

    Day after tomorrow, 21 January, Sunday

    Time Temperature Precipitation Wind Pressure Humidity
    00:00 +9°C° 0 mm 3 mps 475 mmHg 67%
    01:00 +8°C° 0 mm 3 mps 475 mmHg 68%
    02:00 +8°C° 0 mm 3 mps 474 mmHg 69%
    03:00 +8°C° 0 mm 3 mps 474 mmHg 70%
    04:00 +7°C° 0 mm 3 mps 474 mmHg 71%
    05:00 +7°C° 0 mm 3 mps 474 mmHg 72%
    06:00 +8°C° 0 mm 3 mps 474 mmHg 69%
    07:00 +7°C° 0 mm 4 mps 475 mmHg 67%
    08:00 +8°C° 0 mm 4 mps 476 mmHg 64%
    09:00 +10°C° 0 mm 4 mps 477 mmHg 58%
    10:00 +12°C° 0 mm 4 mps 478 mmHg 51%
    11:00 +14°C° 0 mm 5 mps 478 mmHg 45%
    12:00 +14°C° 0.4 mm 4 mps 478 mmHg 43%
    13:00 +15°C° 0.4 mm 4 mps 478 mmHg 41%
    14:00 +17°C° 0.4 mm 4 mps 478 mmHg 39%
    15:00 +17°C° 0.4 mm 4 mps 477 mmHg 41%
    16:00 +15°C° 0.4 mm 4 mps 476 mmHg 42%
    17:00 +15°C° 0.4 mm 4 mps 476 mmHg 43%
    18:00 +14°C° 0.5 mm 4 mps 476 mmHg 49%
    19:00 +12°C° 0.5 mm 5 mps 475 mmHg 54%
    20:00 +10°C° 0.5 mm 5 mps 475 mmHg 60%
    21:00 +10°C° 0.1 mm 5 mps 475 mmHg 61%
    22:00 +9°C° 0.1 mm 5 mps 475 mmHg 62%
    23:00 +8°C° 0.1 mm 4 mps 475 mmHg 64%

    22 January, Monday

    Time Temperature Precipitation Wind Pressure Humidity
    00:00 +8°C° 0.1 mm 4 mps 475 mmHg 64%
    01:00 +9°C° 0.1 mm 3 mps 474 mmHg 65%
    02:00 +8°C° 0.1 mm 3 mps 474 mmHg 66%
    03:00 +8°C° 0 mm 3 mps 474 mmHg 68%
    04:00 +8°C° 0 mm 3 mps 473 mmHg 69%
    05:00 +7°C° 0 mm 4 mps 473 mmHg 71%
    06:00 +7°C° 0 mm 4 mps 474 mmHg 69%
    07:00 +7°C° 0 mm 4 mps 474 mmHg 67%
    08:00 +8°C° 0 mm 4 mps 475 mmHg 65%
    09:00 +10°C° 0 mm 4 mps 476 mmHg 58%
    10:00 +12°C° 0 mm 4 mps 476 mmHg 51%
    11:00 +13°C° 0 mm 5 mps 477 mmHg 44%
    12:00 +14°C° 0 mm 5 mps 477 mmHg 41%
    13:00 +15°C° 0 mm 5 mps 477 mmHg 38%
    14:00 +16°C° 0 mm 5 mps 477 mmHg 35%
    15:00 +16°C° 0 mm 5 mps 477 mmHg 35%
    16:00 +16°C° 0 mm 5 mps 476 mmHg 36%
    17:00 +16°C° 0 mm 5 mps 476 mmHg 36%
    18:00 +14°C° 0 mm 5 mps 475 mmHg 42%
    19:00 +13°C° 0 mm 5 mps 475 mmHg 47%
    20:00 +10°C° 0 mm 5 mps 474 mmHg 53%
    21:00 +9°C° 0 mm 5 mps 474 mmHg 55%
    22:00 +10°C° 0 mm 4 mps 474 mmHg 58%
    23:00 +9°C° 0 mm 3 mps 474 mmHg 60%

    23 January, Tuesday

    Time Temperature Precipitation Wind Pressure Humidity
    00:00 +9°C° 0 mm 3 mps 474 mmHg 63%
    01:00 +8°C° 0 mm 3 mps 473 mmHg 65%
    02:00 +8°C° 0 mm 3 mps 473 mmHg 67%
    03:00 +7°C° 0 mm 3 mps 473 mmHg 69%
    04:00 +7°C° 0 mm 2 mps 473 mmHg 71%
    05:00 +7°C° 0 mm 2 mps 472 mmHg 73%
    06:00 +7°C° 0 mm 2 mps 473 mmHg 69%
    07:00 +8°C° 0 mm 2 mps 474 mmHg 65%
    08:00 +9°C° 0 mm 2 mps 475 mmHg 62%
    09:00 +11°C° 0 mm 3 mps 476 mmHg 54%
    10:00 +13°C° 0 mm 4 mps 477 mmHg 46%
    11:00 +14°C° 0 mm 4 mps 478 mmHg 38%
    12:00 +15°C° 0 mm 5 mps 478 mmHg 36%
    13:00 +16°C° 0 mm 6 mps 477 mmHg 34%
    14:00 +17°C° 0 mm 6 mps 477 mmHg 32%
    15:00 +17°C° 0 mm 7 mps 477 mmHg 33%
    16:00 +16°C° 0 mm 7 mps 477 mmHg 34%
    17:00 +16°C° 0 mm 7 mps 476 mmHg 35%
    18:00 +14°C° 0 mm 7 mps 476 mmHg 41%
    19:00 +11°C° 0 mm 6 mps 475 mmHg 46%
    20:00 +10°C° 0 mm 6 mps 474 mmHg 52%
    21:00 +9°C° 0 mm 6 mps 474 mmHg 54%
    22:00 +8°C° 0 mm 5 mps 474 mmHg 56%
    23:00 +8°C° 0 mm 4 mps 474 mmHg 58%

    24 January, Wednesday

    Time Temperature Precipitation Wind Pressure Humidity
    00:00 +7°C° 0 mm 4 mps 474 mmHg 59%
    01:00 +8°C° 0 mm 3 mps 474 mmHg 60%
    02:00 +8°C° 0 mm 2 mps 473 mmHg 61%
    03:00 +8°C° 0 mm 2 mps 473 mmHg 63%
    04:00 +7°C° 0 mm 2 mps 473 mmHg 64%
    05:00 +7°C° 0 mm 2 mps 473 mmHg 66%
    06:00 +8°C° 0 mm 2 mps 474 mmHg 63%
    07:00 +8°C° 0 mm 3 mps 475 mmHg 61%
    08:00 +9°C° 0 mm 3 mps 475 mmHg 58%
    09:00 +11°C° 0 mm 4 mps 476 mmHg 52%
    10:00 +13°C° 0 mm 4 mps 477 mmHg 45%
    11:00 +14°C° 0 mm 5 mps 478 mmHg 39%
    12:00 +15°C° 0 mm 5 mps 478 mmHg 38%
    13:00 +16°C° 0 mm 5 mps 478 mmHg 36%
    14:00 +17°C° 0 mm 6 mps 478 mmHg 35%
    15:00 +16°C° 0.1 mm 6 mps 478 mmHg 36%
    16:00 +16°C° 0.1 mm 6 mps 477 mmHg 38%
    17:00 +16°C° 0.1 mm 6 mps 477 mmHg 39%
    18:00 +14°C° 0.1 mm 6 mps 476 mmHg 45%
    19:00 +13°C° 0.1 mm 5 mps 476 mmHg 52%
    20:00 +10°C° 0.1 mm 5 mps 475 mmHg 58%
    21:00 +10°C° 0.1 mm 5 mps 475 mmHg 60%
    22:00 +10°C° 0.1 mm 4 mps 475 mmHg 62%
    23:00 +9°C° 0.1 mm 3 mps 475 mmHg 64%
    Show more